GFSFLT1_700_temp_057.txt.gz
Temp
5 5 4 0 2 2 2 2 2 2 1 2 1 -1 -3 -2 -1 -1 -2 -2 -2 -1 -1 1 1 1 0 1 1 1 1 1
5 6 5 4 2 2 2 2 2 2 1 2 1 0 -1 -1 -2 -1 -2 -2 -2 -1 0 1 0 0 1 1 1 1 0 0
6 5 5 5 5 4 3 2 2 1 1 1 1 0 -0 -1 -1 -1 -2 -2 -1 -0 1 1 0 0 1 1 1 0 0 0
6 5 6 5 5 5 5 4 2 1 0 1 0 -0 -1 -2 -1 -1 -2 -2 -1 0 1 1 1 1 1 0 0 0 0 -0
6 6 6 5 5 6 6 6 5 4 2 0 1 -0 -1 -1 -1 -1 -2 -1 -0 1 1 1 1 1 1 1 1 1 0 0
6 6 5 6 5 5 5 5 5 5 5 3 2 2 2 1 1 1 1 1 1 1 1 1 1 1 1 1 0 0 0 -0
7 6 5 6 6 6 5 5 5 5 5 4 4 3 3 2 2 2 2 2 1 2 1 2 1 1 0 1 1 0 0 -0
7 7 6 6 6 6 6 6 5 5 5 5 5 4 3 3 2 2 2 2 2 2 2 1 1 1 0 -0 0 0 0 -0
7 7 7 7 6 6 6 6 6 6 5 5 5 4 4 4 3 3 3 3 2 2 2 1 0 1 1 0 0 0 0 0
7 7 7 6 6 6 6 6 6 6 5 5 5 4 4 4 3 3 2 2 2 2 2 2 1 1 1 0 1 0 0 1
8 7 7 6 6 6 6 6 5 5 5 5 5 5 4 4 3 3 3 2 2 1 1 1 1 1 1 0 1 1 1 1
8 7 7 7 6 6 6 6 6 5 5 5 4 4 4 4 3 3 3 2 2 0 0 2 2 1 1 1 1 1 1 0
8 7 7 7 7 6 6 6 6 6 5 4 3 3 3 3 3 2 1 1 2 2 1 0 1 1 1 1 1 1 1 0
8 7 7 7 7 6 6 6 6 6 5 5 4 4 4 4 4 3 1 2 2 2 2 1 1 1 1 1 1 1 1 -0
7 7 7 7 7 7 6 6 6 6 6 5 4 4 4 4 3 3 1 2 2 2 2 1 1 1 2 1 1 1 0 -1
7 7 7 7 7 7 6 6 6 6 6 5 5 5 4 4 4 3 3 3 3 2 2 2 2 2 1 1 1 1 -0 -1
7 7 7 7 7 7 7 6 6 6 5 5 5 5 4 3 3 3 3 3 3 2 2 2 2 1 1 1 1 0 -0 -2
7 7 7 7 7 7 6 6 5 5 5 5 4 4 4 3 3 3 3 2 2 2 2 2 2 1 1 0 -0 -0 -1 -2
7 7 7 7 7 6 6 6 5 5 4 4 4 4 3 3 3 3 3 2 2 2 1 1 1 1 0 0 -0 -1 -1 -2

GFSFLT1_700_temp_060.txt.gz
Temp
5 5 4 2 2 2 2 2 2 1 2 2 1 1 -2 -2 -1 -2 -1 -1 -1 -0 -1 -1 0 0 1 1 1 0 0 1
5 5 4 3 2 2 2 2 1 1 1 1 1 1 -1 -1 -2 -1 -1 -2 -2 -2 -2 -1 0 0 0 0 0 0 0 0
6 5 4 4 4 2 2 2 2 2 1 1 1 0 -1 -2 -2 -2 -2 -2 -2 -2 -2 -2 -1 -1 0 0 0 1 1 1
6 5 5 4 4 4 3 2 2 1 1 0 0 0 0 -1 -2 -2 -2 -2 -1 -2 -2 -1 -1 -0 0 0 0 0 0 0
6 6 5 5 4 5 5 4 3 2 1 1 1 1 0 0 -1 -2 -2 -2 -2 -1 -1 -1 -0 0 1 1 1 1 1 0
7 6 6 5 5 5 5 5 5 4 2 1 1 1 -0 0 -0 -1 -2 -1 -1 -1 -1 -1 0 0 1 1 1 1 1 1
7 6 6 6 5 5 5 5 5 5 5 4 4 3 3 2 2 1 0 -0 -0 0 -0 0 1 0 1 1 0 -0 -0 -0
7 7 7 6 6 5 5 5 5 5 5 5 4 4 4 4 4 3 3 3 2 2 1 1 0 0 0 0 -1 -0 -0 -0
7 7 7 7 6 6 6 5 5 5 5 5 4 4 4 3 3 3 3 2 2 1 0 0 0 1 0 -0 -0 0 -0 -0
8 7 7 7 6 6 6 6 5 5 5 5 5 4 4 4 4 3 3 2 2 1 0 0 1 1 1 1 0 0 0 -0
8 7 7 7 6 6 6 6 6 5 5 5 5 4 4 4 3 3 3 2 2 1 1 1 1 1 1 1 1 1 0 0
8 8 7 7 6 6 6 6 6 5 5 5 5 5 4 4 3 3 3 2 2 1 0 0 0 0 0 1 0 0 1 0
8 8 7 7 7 7 6 6 6 6 5 5 5 5 4 3 3 3 3 3 2 0 1 1 0 0 -0 0 0 -0 -0 -0
8 8 7 7 7 7 6 6 6 6 5 5 5 4 4 3 4 4 3 2 1 0 0 -0 2 0 -0 -0 0 0 0 0
8 8 7 7 7 7 7 6 6 6 6 6 6 5 4 3 4 4 3 3 1 1 2 2 1 1 0 1 1 1 1 1
7 8 7 7 7 7 7 6 6 6 6 6 6 5 5 4 3 4 3 3 2 2 2 2 2 2 2 2 2 1 2 1
7 7 7 7 7 7 7 7 6 6 6 5 5 5 5 5 4 4 3 3 2 2 2 2 2 2 2 2 2 2 1 1
7 7 7 7 7 7 7 7 6 6 5 5 5 4 4 4 4 4 3 3 3 2 2 2 2 3 2 2 1 1 1 -1
7 7 7 7 7 7 7 7 6 6 5 5 4 4 3 4 3 3 3 3 3 2 2 2 2 2 1 1 1 0 -0 -1

GFSFLT1_700_temp_063.txt.gz
Temp
5 5 4 4 1 1 2 2 2 2 2 1 1 1 0 -0 -0 -0 -2 -1 -1 -1 -1 -1 -1 -1 0 1 0 0 0 0
6 5 5 4 1 2 2 1 1 2 1 2 1 1 0 -0 -0 -1 -2 -1 -1 -1 -2 -2 -1 -1 -1 0 -0 0 0 -0
6 5 5 4 3 2 2 2 2 2 2 1 1 1 -0 -1 -1 -0 -2 -1 -2 -1 -2 -2 -2 -1 -1 -0 -0 0 0 0
6 6 5 4 4 3 3 2 2 2 2 2 1 0 -0 -0 -1 -1 -1 -2 -2 -2 -2 -2 -2 -1 -2 -1 0 0 0 -0
6 6 6 5 5 5 4 3 2 2 2 1 1 1 1 1 -0 -1 -2 -2 -2 -2 -2 -2 -1 -2 -1 -1 -1 -0 0 -0
7 6 6 6 6 5 5 5 3 2 2 1 1 1 0 0 -1 -1 -1 -1 -2 -2 -2 -2 -1 -1 -1 -1 -1 -0 -0 0
7 7 6 6 5 5 5 5 5 5 3 1 1 1 1 0 0 -0 -2 -2 -2 -2 -2 -1 -1 -1 -2 -1 -1 -0 -0 0
7 7 7 6 6 5 5 5 5 5 5 4 3 1 -0 0 -0 -0 -1 -1 -1 -2 -1 -1 -1 -1 -1 -1 -1 -0 -0 0
7 7 7 7 6 6 6 5 5 5 5 5 4 4 4 2 1 0 -0 -0 -0 -1 -1 -0 -0 1 0 -0 -0 0 0 -1
8 7 7 7 7 6 6 6 5 5 5 5 5 5 4 4 4 3 3 2 1 1 1 2 2 1 1 -0 0 1 1 -1
8 8 7 7 7 6 6 6 6 5 5 5 5 5 4 4 4 4 3 3 3 2 2 2 1 1 0 -0 0 1 0 -0
8 7 7 7 7 6 6 6 6 6 5 5 5 5 5 4 4 4 3 3 3 2 2 2 1 1 0 0 0 -0 0 0
8 8 7 7 7 7 6 6 6 6 6 5 5 5 5 5 4 4 4 3 3 2 2 2 1 0 0 -0 -0 -0 -0 -0
8 8 7 7 7 7 7 6 6 6 6 5 5 5 5 5 4 4 3 3 3 2 2 1 0 -0 -0 -0 -1 -1 -0 -1
7 8 7 7 7 7 7 6 6 6 6 6 6 5 5 4 4 4 4 3 2 2 2 1 1 1 0 -0 -0 0 -0 -0
7 7 7 7 7 7 7 7 6 6 6 6 6 6 5 5 4 4 3 3 3 2 2 2 2 2 1 1 1 0 0 0
7 7 7 7 7 7 7 7 7 6 6 6 5 5 5 5 5 4 4 3 3 2 2 2 2 2 2 2 1 1 2 0
7 7 7 7 7 7 7 7 7 6 6 6 6 5 5 4 4 4 4 4 4 3 3 3 2 1 2 2 1 1 2 1
6 7 7 7 7 7 7 7 7 7 6 6 6 5 5 4 4 3 3 3 3 3 3 2 2 2 2 1 2 2 1 1

GFSFLT1_700_temp_066.txt.gz
Temp
5 5 5 5 3 2 2 2 2 2 2 1 2 2 1 0 0 -1 -1 -1 -1 -1 -1 -1 -0 0 0 0 1 0 0 0
6 5 6 5 2 2 2 2 2 2 2 2 2 1 1 0 0 -1 -1 -2 -1 -1 -1 -1 -1 -1 -0 -0 -0 0 -0 -0
6 6 6 5 3 3 2 3 3 2 2 2 1 2 1 1 0 -1 -1 -2 -1 -1 -1 -1 -2 -1 -1 -1 -1 -0 -0 -0
6 6 6 6 5 4 3 3 3 2 2 1 2 1 1 1 0 -0 -1 -2 -1 -1 -1 -1 -2 -2 -1 -1 -1 -1 -1 -1
7 6 6 6 6 5 4 3 3 2 2 2 2 2 1 1 1 0 -1 -2 -1 -1 -1 -1 -2 -2 -1 -1 -1 -1 -1 -1
7 6 6 6 6 6 5 5 4 3 2 2 1 2 1 1 1 -0 -1 -1 -1 -1 -1 -1 -2 -2 -1 -1 -1 -1 -0 -1
7 7 7 6 6 6 6 6 5 4 2 1 1 1 1 1 1 1 -0 -1 -1 -1 -1 -2 -1 -2 -2 -2 -1 -1 -0 -1
7 7 7 7 6 6 6 6 6 5 4 3 2 1 1 1 1 0 -0 -0 -1 -0 -1 -1 -1 -1 -1 -2 -1 -1 -1 -1
7 7 7 7 7 6 6 6 6 6 5 5 4 2 2 1 0 0 -0 -0 -0 -1 -1 -1 -1 -1 -2 -2 -1 -1 -1 -1
8 7 7 7 7 6 6 6 6 6 5 5 5 5 5 4 2 1 0 0 -1 -1 -1 -1 -1 -2 -2 -1 -1 -0 -1 -0
8 7 7 7 7 6 6 6 6 5 5 5 5 5 5 4 4 4 3 2 1 0 -0 -1 -1 -1 -1 0 0 1 1 0
8 8 7 7 7 6 6 6 6 6 6 5 5 5 5 5 4 4 4 3 3 3 2 1 1 1 2 1 1 1 1 1
8 8 7 7 7 7 7 6 6 6 6 6 5 5 5 5 5 4 4 4 3 3 3 2 2 2 2 2 2 1 1 1
8 8 8 7 7 7 7 7 6 6 6 6 5 5 5 5 5 5 4 4 4 4 3 3 3 2 2 1 1 1 0 0
7 8 7 7 7 7 7 7 7 6 6 6 6 5 5 5 5 4 4 4 4 3 3 3 3 2 1 1 1 0 -0 -0
6 7 7 7 7 7 7 7 7 7 6 6 6 6 6 5 5 4 4 4 4 3 3 3 2 2 1 1 1 1 1 -0
7 7 7 7 7 7 7 7 7 7 7 6 6 6 6 6 5 5 4 4 3 3 3 3 2 2 2 1 1 1 1 0
6 6 7 7 7 7 7 7 7 7 6 6 6 6 6 6 5 5 5 4 4 4 3 3 2 2 2 1 1 0 0 0
6 6 6 6 6 7 7 7 7 7 6 6 6 6 6 5 5 5 4 4 4 4 4 3 3 3 3 2 2 1 1 1

GFSFLT1_700_temp_069.txt.gz
Temp
7 7 6 6 4 2 2 2 2 2 2 2 1 1 1 1 1 1 0 -2 -0 0 0 0 1 0 1 0 0 1 1 1
7 7 6 6 6 2 2 2 2 2 2 2 2 2 2 1 0 0 -0 -2 -2 -2 -1 -1 -1 -1 -1 -1 0 1 1 0
7 7 6 6 6 4 3 3 3 3 2 2 2 2 2 1 1 0 -1 -2 -1 -1 -0 -0 -1 -1 -1 -0 0 0 -0 -0
7 7 6 6 6 5 4 3 3 3 3 3 2 1 1 1 1 0 -0 -1 -1 -1 -1 -1 -1 -2 -1 -1 0 -0 -0 -0
7 7 7 6 6 6 4 4 3 3 3 3 3 3 2 2 1 0 0 -1 -1 -1 -1 -2 -1 -2 -1 -1 -0 -0 -0 -1
8 7 7 7 6 6 6 5 4 4 3 3 3 2 1 1 1 0 0 -1 -2 -1 -1 -1 -1 -1 -1 -1 -1 -1 -0 -1
8 8 7 7 7 7 6 6 5 4 3 2 2 2 2 1 1 1 1 0 -1 -2 -2 -1 -1 -1 -1 -2 -1 -1 -1 -1
8 8 7 7 7 7 7 6 6 6 4 3 2 2 2 2 1 1 1 1 -0 -1 -1 -1 -1 -1 -1 -1 -1 -1 -1 -1
8 8 7 7 7 7 6 6 6 6 6 5 3 2 2 2 1 1 1 1 0 -0 -0 -1 -1 -1 -1 -0 -1 -1 -1 -1
8 8 7 7 7 7 6 6 6 6 6 6 6 4 4 3 3 2 1 1 0 -0 -0 -0 -0 -0 -0 -0 -0 -1 -1 -1
8 8 8 7 7 7 7 6 6 6 6 6 6 5 5 4 4 4 4 2 1 0 -0 -0 0 0 0 -0 -1 -0 -0 0
7 8 8 7 7 7 7 7 6 6 6 6 6 5 5 5 5 5 4 4 4 3 2 1 0 0 0 -0 0 1 1 1
8 8 8 7 7 7 7 7 7 6 6 6 6 5 5 5 5 5 4 4 4 4 3 3 3 2 2 1 1 2 2 2
6 8 8 8 7 7 7 7 7 6 6 6 6 6 6 5 5 5 5 4 4 4 3 3 3 3 3 3 3 2 2 2
6 6 7 7 7 7 7 7 7 6 6 6 6 6 6 6 5 5 5 5 4 4 4 4 4 3 3 3 2 2 2 2
6 6 6 7 7 7 7 7 7 7 7 7 7 6 6 5 5 5 5 4 4 4 4 4 3 3 3 3 2 2 1 1
5 5 6 6 5 7 7 7 7 7 7 7 7 7 6 6 5 5 5 5 4 4 4 4 3 3 3 3 2 2 2 1
5 6 5 6 6 5 7 7 7 7 7 7 7 7 7 6 6 6 6 6 5 5 5 4 4 3 3 3 2 2 1 1
5 5 5 6 6 6 6 6 7 7 7 7 7 7 7 6 6 6 6 6 6 5 5 4 4 4 4 3 3 2 1 1

GFSFLT1_700_temp_072.txt.gz
Temp
7 7 7 6 6 5 4 2 2 3 2 2 2 2 2 2 2 1 1 1 0 1 0 -1 1 1 1 1 1 1 1 1
6 8 7 6 6 6 3 2 3 3 3 2 1 2 2 2 2 1 1 1 1 0 -1 -1 -0 1 1 1 1 1 1 1
7 8 7 7 7 6 4 3 3 3 3 2 2 2 2 2 1 1 1 1 1 -1 0 -0 -0 0 1 1 1 -0 -1 -0
7 8 8 7 6 6 5 4 3 4 4 3 3 2 2 2 1 1 1 1 1 -1 -1 -1 -1 -1 -0 0 0 -1 -1 -1
7 8 8 7 7 7 5 4 4 4 4 4 3 3 3 2 1 1 1 1 -0 -1 -2 -2 -1 -0 0 0 -1 -1 -1 -1
7 8 8 7 7 6 6 6 4 4 4 4 3 3 3 2 1 1 1 1 1 0 -0 -1 -1 -1 -0 -1 -0 -1 -1 -1
7 8 8 8 7 7 6 6 6 5 4 3 3 3 2 3 2 1 1 1 1 1 0 -1 -1 -1 -1 -1 -0 -0 -1 -1
7 8 8 8 7 7 7 6 6 6 5 3 2 2 2 2 1 1 1 0 0 0 -0 -1 -1 -1 -1 -0 -0 -0 -1 -0
7 8 8 8 8 7 7 7 6 6 6 5 3 2 2 2 2 2 1 0 1 1 0 -0 -1 -1 -0 -0 -0 -1 -1 -1
7 8 8 8 8 7 7 7 7 6 6 6 5 3 2 2 2 2 1 1 1 1 1 0 -1 -1 -1 -1 -1 -1 -1 -1
7 7 8 8 7 7 7 7 7 7 6 6 6 6 5 3 2 2 2 1 1 1 0 0 0 -0 -1 -1 -1 -1 -0 -1
7 7 8 7 7 7 7 7 7 7 7 6 6 6 6 6 5 4 3 3 2 1 1 0 -0 -0 -0 -1 -1 -0 -0 -0
7 6 7 8 7 7 7 7 7 7 7 6 6 6 6 6 6 5 5 5 4 4 3 1 1 0 -1 -1 -0 0 0 0
6 6 6 7 7 7 7 7 7 7 7 6 6 6 6 6 6 6 5 5 5 4 4 4 4 4 3 2 2 2 1 1
7 6 6 5 7 7 7 7 7 7 6 6 6 6 6 6 6 6 5 5 5 5 5 4 4 4 4 4 3 3 3 3
6 6 6 6 5 6 7 7 7 7 7 7 7 7 6 6 6 6 5 5 5 5 5 4 4 4 4 4 3 3 3 2
5 5 6 5 5 5 6 6 7 7 7 7 7 7 7 6 6 6 5 5 5 5 5 4 4 4 4 4 3 3 3 2
5 5 5 5 5 5 4 4 5 6 7 7 7 7 7 7 7 6 6 6 5 5 5 5 5 5 4 4 3 2 2 2
5 5 5 5 5 6 5 6 5 5 6 7 7 7 7 7 7 7 7 6 6 6 6 6 5 5 5 4 4 3 2 2